Regional Weather Roundup
Issued by NWS

Home | Current Version | Previous Version | Graphics & Text | Print | Product List | Glossary On
Versions: 1 2 3 4 5 6 7 8 9 10 11 12 13 14 15 16 17 18 19 20 21 22 23 24 25 26 27 28 29 30 31 32 33 34 35 36 37 38 39 40 41 42 43 44 45 46 47 48 49 50
000
ASUS43 KTOP 302059
RWRKS

WEATHER ROUNDUP FOR KANSAS
NATIONAL WEATHER SERVICE GOODLAND KS
400 PM CDT THU OCT 30 2014

NOTE:  "FAIR" INDICATES FEW OR NO CLOUDS BELOW 12,000 FEET WITH NO
SIGNIFICANT WEATHER AND/OR OBSTRUCTIONS TO VISIBILITY.

KSZ001>006-013>018-027>032-041>047-302200-
NORTHWEST KANSAS

CITY           SKY/WX    TMP DP  RH WIND       PRES   REMARKS
GOODLAND       SUNNY     66  26  22 N16       30.28F
HAYS           SUNNY     70  30  23 N21G28    30.19S
HILL CITY      SUNNY     69  30  23 N21G30    30.21S
RUSSELL        SUNNY     69  32  25 N24G33    30.16S
$$

KSZ061>065-074>080-084>089-302200-
SOUTHWEST KANSAS

CITY           SKY/WX    TMP DP  RH WIND       PRES   REMARKS
DODGE CITY     SUNNY     69  28  21 N18       30.22F
ELKHART          N/A     68  31  25 NW5         N/A
GARDEN CITY    SUNNY     68  27  21 N20       30.24F
GREAT BEND     SUNNY     70  34  26 NW17G25   30.18S
LIBERAL        SUNNY     70  30  23 N16G22    30.26S
$$

KSZ066>073-081>083-090>101-302200-
SOUTHEAST KANSAS

CITY           SKY/WX    TMP DP  RH WIND       PRES   REMARKS
CHANUTE        SUNNY     71  37  28 N18G25    30.05R
COFFEYVILLE    SUNNY     73  37  27 N20G30    30.05R
HUTCHINSON     SUNNY     72  34  24 NW20      30.14S
MEDICINE LODGE   N/A     74  33  22 NW14G26   30.15S
NEWTON         SUNNY     70  36  28 NW18G28   30.13F
PARSONS        SUNNY     73  35  25 N22G32    30.06R
WICHITA INTL   MOSUNNY   73  35  25 NW18      30.11S
WICHITA JABRA  SUNNY     71  36  27 NW22G28   30.11S
WINFIELD       SUNNY     72  37  28 N16G29    30.11S
$$

KSZ007>012-019>026-033>040-048>060-102>105-302200-
NORTHEAST KANSAS

CITY           SKY/WX    TMP DP  RH WIND       PRES   REMARKS
CONCORDIA      SUNNY     67  36  31 N17G28    30.13R
EMPORIA        SUNNY     70  35  27 N18G32    30.07S
LAWRENCE       SUNNY     67  41  38 NW21G29   30.04R
MANHATTAN      SUNNY     70  37  29 N15G22    30.09S
OLATHE IND     SUNNY     66  40  38 NW20      30.04R
OLATHE EXE     SUNNY     67  40  37 N15G26    30.02R
SALINA         SUNNY     72  33  24 NW25G33   30.12S
TOPEKA BILLARD SUNNY     69  40  34 N18G24    30.06R
TOPEKA FORBES  SUNNY     68  38  33 NW22      30.05R
$$



USA.gov is the U.S. government's official web portal to all federal, state and local government web resources and services.